When you browse on this site, cookies collect data to enhance your experience and personalize the content and advertising you see.
Visit our Privacy Policy to learn more. By continuing to use the site, you agree to this use of cookies and data.
  • In Sweden
  • List of Countries
  • For 7 days
  • Water Temperature
  • Satellite Maps
  • Weather Map
  • Weather Widgets
  • user-avatar
    Login

    Hourly Weather Janiszewo

    Today, 20 February, Wednesday

    Time Temperature Precipitation Wind Pressure Humidity
    00:00 +3°C° 0 mm 5 mps 752 mmHg 85%
    01:00 +2°C° 0 mm 5 mps 752 mmHg 86%
    02:00 +2°C° 0 mm 5 mps 752 mmHg 88%
    03:00 +2°C° 0 mm 6 mps 753 mmHg 89%
    04:00 +2°C° 0 mm 6 mps 753 mmHg 90%
    05:00 +2°C° 0 mm 6 mps 753 mmHg 87%
    06:00 +2°C° 0 mm 6 mps 753 mmHg 85%
    07:00 +2°C° 0 mm 6 mps 753 mmHg 82%
    08:00 +3°C° 0.1 mm 6 mps 754 mmHg 79%
    09:00 +3°C° 0.1 mm 7 mps 754 mmHg 77%
    10:00 +3°C° 0.1 mm 7 mps 755 mmHg 74%
    11:00 +4°C° 0.1 mm 7 mps 755 mmHg 71%
    12:00 +4°C° 0.1 mm 7 mps 755 mmHg 69%
    13:00 +4°C° 0.1 mm 8 mps 756 mmHg 66%
    14:00 +4°C° 0 mm 7 mps 756 mmHg 67%
    15:00 +4°C° 0 mm 7 mps 756 mmHg 69%
    16:00 +4°C° 0 mm 6 mps 756 mmHg 70%
    17:00 +4°C° 0 mm 6 mps 757 mmHg 72%
    18:00 +5°C° 0 mm 5 mps 757 mmHg 74%
    19:00 +4°C° 0 mm 4 mps 757 mmHg 77%
    20:00 +4°C° 0 mm 4 mps 758 mmHg 80%
    21:00 +3°C° 0 mm 3 mps 758 mmHg 84%
    22:00 +3°C° 0 mm 3 mps 758 mmHg 87%
    23:00 +3°C° 0 mm 3 mps 758 mmHg 89%

    Tomorrow, 21 February, Thursday

    Time Temperature Precipitation Wind Pressure Humidity
    00:00 +2°C° 0 mm 3 mps 759 mmHg 91%
    01:00 +3°C° 0 mm 2 mps 759 mmHg 93%
    02:00 +2°C° 0.1 mm 3 mps 759 mmHg 94%
    03:00 +3°C° 0.1 mm 3 mps 758 mmHg 94%
    04:00 +3°C° 0.1 mm 3 mps 758 mmHg 95%
    05:00 +3°C° 0.2 mm 3 mps 758 mmHg 94%
    06:00 +3°C° 0.2 mm 4 mps 758 mmHg 93%
    07:00 +3°C° 0.2 mm 4 mps 757 mmHg 92%
    08:00 +2°C° 0.8 mm 5 mps 757 mmHg 90%
    09:00 +3°C° 0.8 mm 5 mps 757 mmHg 89%
    10:00 +3°C° 0.8 mm 6 mps 757 mmHg 87%
    11:00 +3°C° 1.1 mm 6 mps 757 mmHg 88%
    12:00 +3°C° 1.1 mm 6 mps 756 mmHg 88%
    13:00 +4°C° 1.1 mm 6 mps 756 mmHg 89%
    14:00 +4°C° 0.5 mm 6 mps 756 mmHg 88%
    15:00 +4°C° 0.5 mm 6 mps 755 mmHg 88%
    16:00 +4°C° 0.5 mm 6 mps 755 mmHg 87%
    17:00 +4°C° 0.4 mm 6 mps 755 mmHg 88%
    18:00 +5°C° 0.4 mm 7 mps 755 mmHg 89%
    19:00 +5°C° 0.4 mm 7 mps 755 mmHg 90%
    20:00 +5°C° 0.1 mm 6 mps 755 mmHg 90%
    21:00 +5°C° 0.1 mm 6 mps 755 mmHg 89%
    22:00 +5°C° 0.1 mm 6 mps 756 mmHg 89%
    23:00 +5°C° 0.4 mm 6 mps 756 mmHg 89%

    Day after tomorrow, 22 February, Friday

    Time Temperature Precipitation Wind Pressure Humidity
    00:00 +5°C° 0.4 mm 6 mps 756 mmHg 89%
    01:00 +5°C° 0.4 mm 7 mps 757 mmHg 89%
    02:00 +3°C° 0.3 mm 6 mps 758 mmHg 87%
    03:00 +1°C° 0.3 mm 6 mps 758 mmHg 84%
    04:00 -2°C° 0.3 mm 6 mps 759 mmHg 82%
    05:00 -2°C° 0 mm 6 mps 760 mmHg 78%
    06:00 -3°C° 0 mm 6 mps 762 mmHg 73%
    07:00 -4°C° 0 mm 5 mps 763 mmHg 69%
    08:00 -4°C° 0 mm 5 mps 764 mmHg 64%
    09:00 -2°C° 0 mm 5 mps 765 mmHg 60%
    10:00 -2°C° 0 mm 5 mps 766 mmHg 56%
    11:00 -2°C° 0 mm 5 mps 767 mmHg 53%
    12:00 -1°C° 0 mm 5 mps 768 mmHg 50%
    13:00 -1°C° 0 mm 5 mps 768 mmHg 47%
    14:00 -1°C° 0 mm 5 mps 769 mmHg 47%
    15:00 -2°C° 0 mm 4 mps 769 mmHg 48%
    16:00 -2°C° 0 mm 4 mps 770 mmHg 48%
    17:00 -3°C° 0 mm 4 mps 770 mmHg 51%
    18:00 -2°C° 0 mm 3 mps 771 mmHg 54%
    19:00 -4°C° 0 mm 3 mps 772 mmHg 57%
    20:00 -4°C° 0 mm 3 mps 772 mmHg 56%
    21:00 -4°C° 0 mm 3 mps 773 mmHg 54%
    22:00 -5°C° 0 mm 3 mps 773 mmHg 53%
    23:00 -4°C° 0 mm 2 mps 773 mmHg 51%

    23 February, Saturday

    Time Temperature Precipitation Wind Pressure Humidity
    00:00 -4°C° 0 mm 2 mps 773 mmHg 48%
    01:00 -4°C° 0 mm 2 mps 774 mmHg 46%
    02:00 -2°C° 0 mm 1 mps 774 mmHg 45%
    03:00 -2°C° 0 mm 1 mps 774 mmHg 44%
    04:00 -3°C° 0 mm 0 mps 773 mmHg 43%
    05:00 -3°C° 0 mm 0 mps 774 mmHg 43%
    06:00 -3°C° 0 mm 0 mps 774 mmHg 43%
    07:00 -3°C° 0 mm 0 mps 774 mmHg 43%
    08:00 -2°C° 0 mm 0 mps 774 mmHg 39%
    09:00 0°C° 0 mm 1 mps 774 mmHg 34%
    10:00 0°C° 0 mm 1 mps 774 mmHg 29%
    11:00 -1°C° 0 mm 2 mps 774 mmHg 28%
    12:00 +1°C° 0 mm 2 mps 773 mmHg 26%
    13:00 +1°C° 0 mm 3 mps 773 mmHg 25%
    14:00 +2°C° 0 mm 2 mps 773 mmHg 28%
    15:00 +2°C° 0 mm 2 mps 772 mmHg 31%
    16:00 +2°C° 0 mm 2 mps 772 mmHg 34%
    17:00 +1°C° 0 mm 2 mps 772 mmHg 37%
    18:00 -1°C° 0 mm 2 mps 772 mmHg 40%
    19:00 -2°C° 0 mm 2 mps 772 mmHg 44%
    20:00 -1°C° 0 mm 2 mps 771 mmHg 44%
    21:00 -1°C° 0 mm 2 mps 771 mmHg 45%
    22:00 -1°C° 0 mm 2 mps 771 mmHg 46%
    23:00 -2°C° 0 mm 2 mps 771 mmHg 48%

    24 February, Sunday

    Time Temperature Precipitation Wind Pressure Humidity
    00:00 -2°C° 0 mm 2 mps 770 mmHg 49%
    01:00 -2°C° 0 mm 3 mps 770 mmHg 50%
    02:00 -2°C° 0 mm 3 mps 770 mmHg 51%
    03:00 -2°C° 0 mm 2 mps 770 mmHg 51%
    04:00 -2°C° 0 mm 2 mps 769 mmHg 51%
    05:00 -2°C° 0 mm 2 mps 769 mmHg 51%
    06:00 -2°C° 0 mm 2 mps 769 mmHg 50%
    07:00 -2°C° 0 mm 2 mps 769 mmHg 50%
    08:00 -1°C° 0 mm 3 mps 769 mmHg 47%
    09:00 +1°C° 0 mm 3 mps 769 mmHg 43%
    10:00 +2°C° 0 mm 3 mps 769 mmHg 40%
    11:00 +3°C° 0 mm 3 mps 768 mmHg 40%
    12:00 +4°C° 0 mm 3 mps 768 mmHg 41%
    13:00 +5°C° 0 mm 3 mps 768 mmHg 41%
    14:00 +6°C° 0 mm 2 mps 767 mmHg 46%
    15:00 +5°C° 0 mm 2 mps 767 mmHg 50%
    16:00 +5°C° 0 mm 2 mps 767 mmHg 54%
    17:00 +4°C° 0 mm 2 mps 767 mmHg 57%
    18:00 +3°C° 0 mm 2 mps 767 mmHg 60%
    19:00 +2°C° 0 mm 2 mps 767 mmHg 62%
    20:00 +2°C° 0 mm 2 mps 767 mmHg 63%
    21:00 +2°C° 0 mm 2 mps 767 mmHg 63%
    22:00 +2°C° 0 mm 2 mps 767 mmHg 63%
    23:00 +2°C° 0 mm 2 mps 767 mmHg 64%

    25 February, Monday

    Time Temperature Precipitation Wind Pressure Humidity
    00:00 +2°C° 0 mm 2 mps 766 mmHg 66%
    01:00 +2°C° 0 mm 2 mps 766 mmHg 67%
    02:00 +2°C° 0 mm 2 mps 766 mmHg 70%
    03:00 +2°C° 0 mm 2 mps 766 mmHg 72%
    04:00 +1°C° 0 mm 2 mps 766 mmHg 74%
    05:00 +1°C° 0 mm 2 mps 766 mmHg 76%
    06:00 0°C° 0 mm 3 mps 766 mmHg 79%
    07:00 -1°C° 0 mm 3 mps 766 mmHg 81%
    08:00 +1°C° 0 mm 3 mps 766 mmHg 79%
    09:00 +2°C° 0 mm 3 mps 766 mmHg 76%
    10:00 +4°C° 0 mm 3 mps 767 mmHg 74%
    11:00 +5°C° 0 mm 3 mps 767 mmHg 74%
    12:00 +7°C° 0 mm 3 mps 767 mmHg 75%
    13:00 +8°C° 0 mm 3 mps 767 mmHg 75%
    14:00 +7°C° 0 mm 3 mps 767 mmHg 76%
    15:00 +7°C° 0 mm 3 mps 766 mmHg 77%
    16:00 +7°C° 0 mm 3 mps 766 mmHg 78%
    17:00 +6°C° 0 mm 2 mps 767 mmHg 82%
    18:00 +5°C° 0 mm 2 mps 767 mmHg 86%
    19:00 +4°C° 0 mm 2 mps 767 mmHg 89%
    20:00 +4°C° 0 mm 2 mps 767 mmHg 90%
    21:00 +4°C° 0 mm 2 mps 767 mmHg 90%
    22:00 +3°C° 0 mm 2 mps 766 mmHg 90%
    23:00 +3°C° 0 mm 2 mps 766 mmHg 90%
    Show more